When you browse on this site, cookies collect data to enhance your experience and personalize the content and advertising you see.
Visit our Privacy Policy to learn more. By continuing to use the site, you agree to this use of cookies and data.
  • In United Kingdom
  • List of Countries
  • For 7 days
  • Water Temperature
  • Satellite Maps
  • Weather Map
  • Weather Widgets
  • user-avatar
    Login

    Hourly Weather Sakkhar

    Today, 20 July, Saturday

    Time Temperature Precipitation Wind Pressure Humidity
    00:00 +40°C° 0 mm 5 mps 744 mmHg 39%
    01:00 +39°C° 0 mm 6 mps 744 mmHg 45%
    02:00 +36°C° 0 mm 7 mps 744 mmHg 50%
    03:00 +36°C° 0 mm 6 mps 744 mmHg 50%
    04:00 +36°C° 0 mm 5 mps 744 mmHg 51%
    05:00 +36°C° 0 mm 3 mps 744 mmHg 51%
    06:00 +37°C° 0 mm 3 mps 745 mmHg 48%
    07:00 +38°C° 0 mm 4 mps 745 mmHg 45%
    08:00 +38°C° 0 mm 4 mps 746 mmHg 42%
    09:00 +41°C° 0 mm 4 mps 745 mmHg 38%
    10:00 +42°C° 0 mm 4 mps 745 mmHg 34%
    11:00 +44°C° 0 mm 4 mps 745 mmHg 30%
    12:00 +45°C° 0 mm 4 mps 745 mmHg 28%
    13:00 +47°C° 0 mm 4 mps 745 mmHg 26%
    14:00 +48°C° 0 mm 4 mps 744 mmHg 23%
    15:00 +48°C° 0 mm 4 mps 743 mmHg 23%
    16:00 +48°C° 0 mm 4 mps 743 mmHg 22%
    17:00 +46°C° 0 mm 3 mps 742 mmHg 23%
    18:00 +45°C° 0 mm 3 mps 743 mmHg 24%
    19:00 +44°C° 0 mm 3 mps 743 mmHg 25%
    20:00 +44°C° 0 mm 3 mps 743 mmHg 26%
    21:00 +43°C° 0 mm 3 mps 743 mmHg 28%
    22:00 +42°C° 0 mm 3 mps 743 mmHg 29%
    23:00 +42°C° 0 mm 3 mps 743 mmHg 30%

    Tomorrow, 21 July, Sunday

    Time Temperature Precipitation Wind Pressure Humidity
    00:00 +40°C° 0 mm 3 mps 743 mmHg 31%
    01:00 +40°C° 0 mm 3 mps 743 mmHg 32%
    02:00 +39°C° 0 mm 3 mps 743 mmHg 34%
    03:00 +39°C° 0 mm 3 mps 743 mmHg 37%
    04:00 +38°C° 0 mm 2 mps 742 mmHg 40%
    05:00 +37°C° 0 mm 2 mps 742 mmHg 43%
    06:00 +38°C° 0 mm 2 mps 743 mmHg 40%
    07:00 +39°C° 0 mm 2 mps 744 mmHg 37%
    08:00 +41°C° 0 mm 2 mps 744 mmHg 34%
    09:00 +42°C° 0 mm 2 mps 744 mmHg 31%
    10:00 +43°C° 0 mm 2 mps 744 mmHg 28%
    11:00 +46°C° 0 mm 2 mps 744 mmHg 24%
    12:00 +47°C° 0 mm 2 mps 744 mmHg 23%
    13:00 +47°C° 0 mm 2 mps 743 mmHg 22%
    14:00 +48°C° 0 mm 3 mps 743 mmHg 21%
    15:00 +48°C° 0 mm 3 mps 742 mmHg 21%
    16:00 +48°C° 0 mm 3 mps 741 mmHg 21%
    17:00 +48°C° 0 mm 3 mps 741 mmHg 21%
    18:00 +47°C° 0 mm 3 mps 741 mmHg 22%
    19:00 +46°C° 0 mm 3 mps 741 mmHg 23%
    20:00 +45°C° 0 mm 4 mps 742 mmHg 24%
    21:00 +44°C° 0 mm 4 mps 742 mmHg 25%
    22:00 +44°C° 0 mm 4 mps 742 mmHg 27%
    23:00 +43°C° 0 mm 4 mps 742 mmHg 28%

    Day after tomorrow, 22 July, Monday

    Time Temperature Precipitation Wind Pressure Humidity
    00:00 +42°C° 0 mm 4 mps 742 mmHg 30%
    01:00 +42°C° 0 mm 4 mps 741 mmHg 31%
    02:00 +41°C° 0 mm 4 mps 741 mmHg 33%
    03:00 +40°C° 0 mm 4 mps 741 mmHg 34%
    04:00 +40°C° 0 mm 4 mps 741 mmHg 35%
    05:00 +38°C° 0 mm 3 mps 741 mmHg 36%
    06:00 +40°C° 0 mm 4 mps 742 mmHg 34%
    07:00 +41°C° 0 mm 4 mps 742 mmHg 32%
    08:00 +42°C° 0 mm 4 mps 743 mmHg 31%
    09:00 +44°C° 0.1 mm 4 mps 742 mmHg 27%
    10:00 +47°C° 0.1 mm 4 mps 742 mmHg 24%
    11:00 +49°C° 0.1 mm 4 mps 742 mmHg 21%
    12:00 +49°C° 0 mm 4 mps 742 mmHg 20%
    13:00 +50°C° 0 mm 4 mps 741 mmHg 19%
    14:00 +51°C° 0 mm 4 mps 741 mmHg 18%
    15:00 +51°C° 0 mm 4 mps 740 mmHg 18%
    16:00 +50°C° 0 mm 3 mps 740 mmHg 18%
    17:00 +50°C° 0 mm 3 mps 739 mmHg 18%
    18:00 +48°C° 0 mm 3 mps 739 mmHg 19%
    19:00 +47°C° 0 mm 3 mps 739 mmHg 21%
    20:00 +47°C° 0 mm 4 mps 740 mmHg 22%
    21:00 +46°C° 0 mm 5 mps 740 mmHg 26%
    22:00 +45°C° 0 mm 6 mps 740 mmHg 29%
    23:00 +43°C° 0 mm 8 mps 740 mmHg 33%

    23 July, Tuesday

    Time Temperature Precipitation Wind Pressure Humidity
    00:00 +43°C° 0 mm 7 mps 740 mmHg 33%
    01:00 +43°C° 0 mm 7 mps 740 mmHg 33%
    02:00 +41°C° 0 mm 6 mps 740 mmHg 33%
    03:00 +40°C° 0 mm 6 mps 740 mmHg 35%
    04:00 +40°C° 0 mm 6 mps 740 mmHg 38%
    05:00 +39°C° 0 mm 5 mps 740 mmHg 40%
    06:00 +39°C° 0 mm 5 mps 741 mmHg 39%
    07:00 +40°C° 0 mm 5 mps 741 mmHg 37%
    08:00 +41°C° 0 mm 5 mps 742 mmHg 35%
    09:00 +44°C° 0 mm 6 mps 742 mmHg 31%
    10:00 +47°C° 0 mm 6 mps 742 mmHg 26%
    11:00 +49°C° 0 mm 6 mps 742 mmHg 21%
    12:00 +51°C° 0 mm 6 mps 741 mmHg 20%
    13:00 +52°C° 0 mm 5 mps 741 mmHg 19%
    14:00 +51°C° 0 mm 4 mps 740 mmHg 17%
    15:00 +51°C° 0 mm 4 mps 740 mmHg 17%
    16:00 +51°C° 0 mm 4 mps 739 mmHg 17%
    17:00 +51°C° 0 mm 4 mps 739 mmHg 17%
    18:00 +50°C° 0 mm 5 mps 739 mmHg 18%
    19:00 +49°C° 0 mm 5 mps 739 mmHg 19%
    20:00 +48°C° 0 mm 6 mps 739 mmHg 21%
    21:00 +46°C° 0 mm 7 mps 739 mmHg 26%
    22:00 +44°C° 0 mm 8 mps 740 mmHg 31%
    23:00 +42°C° 0 mm 9 mps 740 mmHg 36%

    24 July, Wednesday

    Time Temperature Precipitation Wind Pressure Humidity
    00:00 +41°C° 0 mm 8 mps 740 mmHg 36%
    01:00 +40°C° 0 mm 8 mps 740 mmHg 36%
    02:00 +40°C° 0 mm 8 mps 740 mmHg 36%
    03:00 +39°C° 0 mm 7 mps 740 mmHg 39%
    04:00 +38°C° 0 mm 6 mps 740 mmHg 43%
    05:00 +38°C° 0 mm 6 mps 740 mmHg 46%
    06:00 +39°C° 0 mm 6 mps 740 mmHg 43%
    07:00 +39°C° 0 mm 6 mps 741 mmHg 40%
    08:00 +40°C° 0 mm 7 mps 741 mmHg 38%
    09:00 +44°C° 0 mm 7 mps 741 mmHg 33%
    10:00 +46°C° 0 mm 7 mps 741 mmHg 28%
    11:00 +49°C° 0 mm 7 mps 741 mmHg 23%
    12:00 +50°C° 0 mm 7 mps 740 mmHg 22%
    13:00 +51°C° 0 mm 6 mps 739 mmHg 20%
    14:00 +52°C° 0 mm 6 mps 739 mmHg 18%
    15:00 +52°C° 0 mm 6 mps 738 mmHg 18%
    16:00 +52°C° 0 mm 5 mps 738 mmHg 18%
    17:00 +53°C° 0 mm 5 mps 737 mmHg 18%
    18:00 +50°C° 0 mm 7 mps 737 mmHg 22%
    19:00 +48°C° 0 mm 8 mps 737 mmHg 26%
    20:00 +45°C° 0 mm 9 mps 737 mmHg 30%
    21:00 +43°C° 0 mm 9 mps 737 mmHg 36%
    22:00 +40°C° 0 mm 9 mps 738 mmHg 43%
    23:00 +38°C° 0 mm 9 mps 738 mmHg 49%

    25 July, Thursday

    Time Temperature Precipitation Wind Pressure Humidity
    00:00 +37°C° 0 mm 9 mps 738 mmHg 52%
    01:00 +35°C° 0 mm 9 mps 738 mmHg 55%
    02:00 +34°C° 0 mm 8 mps 738 mmHg 58%
    03:00 +34°C° 0 mm 8 mps 739 mmHg 59%
    04:00 +33°C° 0 mm 7 mps 739 mmHg 61%
    05:00 +33°C° 0 mm 6 mps 739 mmHg 62%
    06:00 +34°C° 0 mm 5 mps 739 mmHg 60%
    07:00 +35°C° 0 mm 4 mps 739 mmHg 57%
    08:00 +36°C° 0 mm 4 mps 739 mmHg 55%
    09:00 +38°C° 0 mm 4 mps 739 mmHg 48%
    10:00 +41°C° 0 mm 4 mps 739 mmHg 41%
    11:00 +44°C° 0 mm 4 mps 739 mmHg 35%
    12:00 +47°C° 0 mm 4 mps 739 mmHg 30%
    13:00 +48°C° 0 mm 4 mps 738 mmHg 26%
    14:00 +50°C° 0 mm 4 mps 737 mmHg 22%
    15:00 +51°C° 0 mm 4 mps 737 mmHg 21%
    16:00 +51°C° 0 mm 4 mps 736 mmHg 19%
    17:00 +52°C° 0 mm 4 mps 735 mmHg 18%
    18:00 +49°C° 0 mm 6 mps 736 mmHg 24%
    19:00 +48°C° 0 mm 8 mps 736 mmHg 30%
    20:00 +44°C° 0 mm 9 mps 736 mmHg 35%
    21:00 +42°C° 0 mm 9 mps 737 mmHg 40%
    22:00 +40°C° 0 mm 8 mps 737 mmHg 45%
    23:00 +38°C° 0 mm 8 mps 738 mmHg 50%
    Show more